EW2719 Weather Reports


Display with metric or nautical units.
time (UTC)temp
F
wind
direction
speed
MPH
gust
MPH
rain 1hr
in
rain 24hr
in
rain mn
in
humidity
%
barometer
mb
20260507191502 49 126 1.0 4.0 0.00 0.00 0.00 80 1018.3
20260507190003 50 134 1.0 4.0 0.00 0.00 0.00 79 1018.2
20260507184606 50 129 0.0 4.0 0.00 0.00 0.00 77 1017.9
20260507183056 51 130 0.0 2.0 0.00 0.00 0.00 75 1017.7
20260507181555 52 133 1.0 3.0 0.00 0.00 0.00 72 1017.6
20260507180057 53 126 0.0 3.0 0.00 0.00 0.00 72 1017.7
20260507174552 54 144 0.0 4.0 0.00 0.00 0.00 69 1017.6
20260507173050 54 122 1.0 6.0 0.00 0.00 0.00 72 1017.6
20260507171550 53 129 2.0 5.0 0.00 0.00 0.00 72 1017.3
20260507170043 53 217 2.0 7.0 0.00 0.00 0.00 71 1017.1
20260507164542 54 130 1.0 5.0 0.00 0.00 0.00 70 1017.2
20260507163040 54 122 3.0 7.0 0.00 0.00 0.00 73 1017.0
20260507161546 54 107 1.0 6.0 0.00 0.00 0.00 76 1017.2
20260507160040 54 114 1.0 4.0 0.00 0.00 0.00 77 1017.1
20260507154538 54 101 0.0 3.0 0.00 0.00 0.00 78 1017.2
20260507153043 54 98 0.0 4.0 0.00 0.00 0.00 78 1017.1
20260507151536 54 105 0.0 3.0 0.00 0.00 0.00 78 1017.0
20260507150038 54 129 0.0 3.0 0.00 0.00 0.00 77 1017.0
20260507144535 54 111 0.0 1.0 0.00 0.00 0.00 77 1017.0
20260507143037 54 106 0.0 2.0 0.00 0.00 0.00 76 1017.0
20260507141534 54 97 0.0 3.0 0.00 0.00 0.00 77 1017.0
20260507140038 54 82 0.0 5.0 0.00 0.00 0.00 76 1017.1
20260507134537 54 94 2.0 6.0 0.00 0.00 0.00 76 1017.0
20260507133034 54 117 2.0 7.0 0.00 0.00 0.00 76 1017.0
20260507131531 54 108 0.0 6.0 0.00 0.00 0.00 76 1017.0
20260507130038 53 123 2.0 6.0 0.00 0.00 0.00 75 1016.9
20260507124530 53 110 1.0 8.0 0.00 0.00 0.00 75 1016.8
20260507123029 54 105 2.0 8.0 0.00 0.00 0.00 75 1016.8
20260507121527 55 113 1.0 6.0 0.00 0.00 0.00 75 1016.7
20260507120026 55 150 1.0 4.0 0.00 0.00 0.00 75 1016.5
20260507114525 55 57 0.0 2.0 0.00 0.00 0.00 73 1016.5
20260507113024 55 36 0.0 4.0 0.00 0.00 0.00 75 1016.5
20260507111526 55 10 2.0 11.0 0.00 0.00 0.00 70 1016.5
20260507110023 57 305 2.0 6.0 0.00 0.00 0.00 68 1016.3
20260507104521 55 17 0.0 6.0 0.00 0.00 0.00 69 1016.4
20260507103028 57 36 1.0 4.0 0.00 0.00 0.00 68 1016.3
20260507101519 56 30 0.0 4.0 0.00 0.00 0.00 68 1016.3
20260507100021 55 122 1.0 6.0 0.00 0.00 0.00 74 1016.1
20260507094513 54 323 0.0 4.0 0.00 0.00 0.00 69 1016.2
20260507093011 52 326 0.0 4.0 0.00 0.00 0.00 75 1016.1
20260507091513 54 333 0.0 7.0 0.00 0.00 0.00 74 1016.1
20260507090008 53 14 1.0 5.0 0.00 0.00 0.00 75 1016.2
20260507084506 54 266 1.0 7.0 0.00 0.00 0.00 75 1016.0
20260507083003 53 202 0.0 5.0 0.00 0.00 0.00 76 1016.0
20260507081610 52 311 1.0 5.0 0.00 0.00 0.00 76 1015.8
20260507080115 52 39 0.0 2.0 0.00 0.00 0.00 77 1015.7
20260507074553 52 306 1.0 4.0 0.00 0.00 0.00 79 1015.5
20260507073049 51 306 0.0 4.0 0.00 0.00 0.00 80 1015.5
20260507071604 50 271 0.0 3.0 0.00 0.00 0.00 79 1015.5
20260507070042 50 246 0.0 3.0 0.00 0.00 0.00 80 1015.4
20260507064537 49 240 1.0 4.0 0.00 0.00 0.00 82 1015.4
20260507063041 48 254 1.0 3.0 0.00 0.00 0.00 83 1015.3
20260507061531 48 272 1.0 3.0 0.00 0.00 0.00 85 1015.2
20260507060030 47 292 0.0 1.0 0.00 0.00 0.00 85 1015.0
20260507054525 46 320 2.0 4.0 0.00 0.00 0.00 87 1014.9
20260507053021 45 204 0.0 0.0 0.00 0.00 0.00 88 1014.6
20260507051527 42 204 0.0 1.0 0.00 0.00 0.00 88 1014.5
20260507050013 40 283 0.0 3.0 0.00 0.00 0.00 88 1014.4
20260507044508 39 276 3.0 4.0 0.00 0.00 0.00 88 1014.3
20260507043010 38 288 1.0 4.0 0.00 0.00 0.00 89 1014.2
20260507041505 37 284 1.0 5.0 0.00 0.00 0.00 88 1014.0
20260507040118 37 277 2.0 5.0 0.00 0.00 0.00 88 1013.9
20260507034601 37 269 0.0 0.0 0.00 0.00 0.00 88 1013.8
20260507033101 36 293 0.0 3.0 0.00 0.00 0.00 88 1013.7
20260507031557 36 282 0.0 4.0 0.00 0.00 0.00 87 1013.8
20260507030055 37 300 3.0 5.0 0.00 0.00 0.00 86 1013.7
20260507024600 38 292 2.0 5.0 0.00 0.00 0.00 86 1013.7
20260507023047 38 339 2.0 5.0 0.00 0.00 0.00 86 1013.6
20260507021545 39 17 0.0 3.0 0.00 0.00 0.00 86 1013.4
20260507020045 38 360 0.0 4.0 0.00 0.00 0.00 85 1013.3
20260507014550 38 344 3.0 5.0 0.00 0.00 0.00 84 1013.3
20260507013036 40 15 2.0 4.0 0.00 0.00 0.00 82 1013.3
20260507011540 40 23 3.0 4.0 0.00 0.00 0.00 82 1013.2
20260507010036 40 19 3.0 4.0 0.00 0.00 0.00 81 1013.3
20260507004537 40 5 2.0 5.0 0.00 0.00 0.00 80 1013.3
20260507003031 41 5 4.0 6.0 0.00 0.00 0.00 79 1013.2
20260507001531 41 17 4.0 6.0 0.00 0.00 0.00 80 1013.1
20260507000029 41 15 5.0 8.0 0.00 0.00 0.00 79 1013.1
20260506234527 41 11 6.0 9.0 0.00 0.00 0.00 79 1013.1
20260506233024 41 15 4.0 7.0 0.00 0.00 0.00 77 1013.2
20260506231523 41 5 4.0 6.0 0.00 0.00 0.00 77 1013.2
20260506230021 41 5 5.0 8.0 0.00 0.00 0.00 75 1013.1
20260506224520 42 15 4.0 6.0 0.00 0.00 0.00 74 1013.0
20260506223017 42 10 4.0 6.0 0.00 0.00 0.00 74 1013.0
20260506221513 42 360 2.0 4.0 0.00 0.00 0.00 74 1012.9
20260506220028 42 355 3.0 6.0 0.00 0.00 0.00 74 1013.0
20260506214510 43 9 3.0 7.0 0.00 0.00 0.00 73 1012.7
20260506213010 43 15 4.0 8.0 0.00 0.00 0.00 74 1012.5
20260506211510 43 355 5.0 8.0 0.00 0.00 0.00 74 1012.7
20260506210013 43 360 4.0 8.0 0.00 0.00 0.00 76 1012.7
20260506204509 43 355 7.0 10.0 0.00 0.00 0.00 76 1012.6
20260506203013 44 355 7.0 10.0 0.00 0.00 0.00 76 1012.6
20260506201507 44 355 5.0 9.0 0.00 0.00 0.00 76 1012.6
20260506200005 45 360 5.0 9.0 0.00 0.00 0.00 75 1012.5
20260506194505 46 355 3.0 9.0 0.00 0.00 0.00 73 1012.4
20260506193002 47 355 5.0 10.0 0.00 0.00 0.00 72 1012.3